Location: Unspecified
(17.6330°N, 0.0000°E)
Time: 14:20:10
(UTC+00:00)

A-11 Canister half - Pass Details

Date: 26 June 2019
Orbit: 1514 x 1685 km, 47.2° (Epoch: 16 July)

Event Time Altitude Azimuth Distance (km) Brightness Sun altitude
Rises 07:43:14 0° 226° (SW) 4,926 11.2 29.4°
Reaches altitude 10° 07:46:25 10° 228° (SW) 3,941 10.8 30.2°
Maximum altitude 07:56:35 77° 313° (NW) 1,709 9.7 32.5°
Drops below altitude 10° 08:06:36 10° 40° (NE) 3,883 12.0 34.8°
Sets 08:09:43 0° 42° (NE) 4,851 12.4 35.5°
